This demonstration page uses our WeatherBlox Daily Observations layout. Learn more.

Left ArrowRight Arrow

Hourly Observations for January 4, 2019

Temp ( °F °C ) Dew Point ( °F °C ) Humidity (%) Winds ( mph kmh ) Pressure ( in mb ) Visibility ( mi km ) Precip ( " mm )
12:05 am 00:05 Cloudy with Light Rain 53 11.7 53 11.7 100 100 Calm 29.97 1015 4 6 0.02 0.51
12:19 am 00:19 Cloudy with Rain 53 11.7 53 11.7 100 100 Calm 29.97 1015 2 3 0.05 1.27
12:32 am 00:32 Cloudy with Light Rain 53 11.7 53 11.7 100 100 Calm 29.97 1015 3 5 0.05 1.27
12:53 am 00:53 Cloudy with Mist and Fog 53 11.7 53 11.7 100 100 Calm 29.96 1015 6 10 0.05 1.27
1:12 am 01:12 Cloudy with Mist and Fog 53 11.7 53 11.7 100 100 Calm 29.97 1015 4 6 0.00 0.00
1:25 am 01:25 Cloudy with Light Rain 53 11.7 53 11.7 100 100 Calm 29.94 1014 3 4 0.01 0.25
1:34 am 01:34 Cloudy with Light Rain 53 11.7 53 11.7 100 100 N 3 6 29.94 1014 4 6 0.01 0.25
1:53 am 01:53 Cloudy with Light Rain 53 11.7 53 11.7 100 100 Calm 29.93 1014 4 6 0.01 0.25
2:03 am 02:03 Cloudy with Light Rain 53 11.7 53 11.7 100 100 Calm 29.94 1014 5 8 0.01 0.25
2:17 am 02:17 Cloudy with Light Rain 53 11.7 53 11.7 100 100 Calm 29.94 1014 4 6 0.02 0.51
2:53 am 02:53 Cloudy with Rain 54 12.2 54 12.2 100 100 Calm 29.92 1013 5 8 0.05 1.27
3:53 am 03:53 Cloudy with Rain 55 12.8 55 12.8 100 100 E 3 6 29.90 1012 6 10 0.10 2.54
4:53 am 04:53 Cloudy with Heavy Rain 54 12.2 54 12.2 100 100 ENE 7 11 29.87 1011 4 6 0.23 5.84
5:04 am 05:04 Cloudy with Heavy Rain 54 12.2 54 12.2 100 100 ENE 8 13 29.88 1012 3 5 0.08 2.03
5:39 am 05:39 Cloudy with Light Rain 54 12.2 54 12.2 100 100 ENE 8 13 29.85 1011 9 14 0.18 4.57
5:53 am 05:53 Cloudy with Light Rain 55 12.8 55 12.8 100 100 NE 9 15 29.83 1010 10 16 0.19 4.83
6:53 am 06:53 Cloudy with Rain 55 12.8 55 12.8 100 100 E 13 20 29.80 1009 6 10 0.17 4.32
7:53 am 07:53 Cloudy with Light Rain 55 12.8 55 12.8 100 100 ENE 7 11 29.79 1009 9 14 0.23 5.84
8:53 am 08:53 Cloudy 56 13.3 56 13.3 100 100 E 7 11 29.78 1009 10 16 0.01 0.25
9:53 am 09:53 Cloudy 57 13.9 57 13.9 100 100 Calm 29.77 1008 10 16 0.00 0.00
10:53 am 10:53 Cloudy 57 13.9 57 13.9 100 100 E 6 9 29.75 1008 10 16 0.00 0.03
11:38 am 11:38 Cloudy with Light Rain 57 13.9 57 13.9 100 100 Calm 29.74 1007 3 4 0.00 0.03
11:53 am 11:53 Cloudy with Light Rain 57 13.9 57 13.9 100 100 E 5 7 29.72 1006 3 5 0.01 0.25
12:53 pm 12:53 Cloudy 60 15.6 60 15.6 100 100 S 5 7 29.67 1005 10 16 0.01 0.25
1:53 pm 13:53 Partly Cloudy 65 18.3 59 15 81 81 S 13 20 29.63 1003 10 16 0.00 0.00
2:53 pm 14:53 Mostly Cloudy with Light Rain 64 17.8 52 11.1 65 65 S 16 26 29.60 1002 10 16 0.00 0.03
3:53 pm 15:53 Partly Cloudy 63 17.2 53 11.7 70 70 SW 10 17 29.63 1003 10 16 0.00 0.03
4:53 pm 16:53 Mostly Cloudy 58 14.4 47 8.3 67 67 WSW 12 19 29.67 1005 10 16 0.00 0.00
5:53 pm 17:53 Partly Cloudy 53 11.7 42 5.6 66 66 W 13 20 29.71 1006 10 16 0.00 0.00
6:53 pm 18:53 Clear 50 10 42 5.6 74 74 WSW 7 11 29.75 1007 10 16 0.00 0.00
7:53 pm 19:53 Cloudy 49 9.4 42 5.6 77 77 W 12 19 29.78 1009 10 16 0.00 0.03
8:12 pm 20:12 Cloudy 48 8.9 41 5 77 77 W 17 28 29.83 1010 10 16 0.00 0.00
8:34 pm 20:34 Mostly Cloudy 47 8.3 40 4.4 77 77 WSW 9 15 29.83 1010 10 16 0.00 0.00
8:53 pm 20:53 Mostly Clear 46 7.8 40 4.4 79 79 W 10 17 29.80 1009 10 16 0.00 0.00
9:53 pm 21:53 Cloudy 46 7.8 41 5 83 83 W 8 13 29.82 1010 10 16 0.00 0.00
10:25 pm 22:25 Cloudy 46 7.8 41 5 83 83 W 6 9 29.85 1011 10 16 0.00 0.00
10:53 pm 22:53 Cloudy 46 7.8 42 5.6 86 86 WSW 7 11 29.82 1010 10 16 0.00 0.00
11:50 pm 23:50 Mostly Cloudy 45 7 39 4 81 81 W 9 15 29.85 1011 10 16 0.00 0.03

Powered by AerisWeather